"Pseudo-MPEC" for P122JF3

Created 2024 Nov 30 13:31:14 UT using Find_Orb

Click here for an explanation of pseudo-MPECs

 
 Astrometry: 
     P122JF3  C2024 09 07.38592123 41 10.804+12 53 13.46   ~BUDH 21.55wXNEOCPF52
     P122JF3  C2024 09 07.40853023 41 10.153+12 53 05.91   ~BUDH 21.60wXNEOCPF52
     P122JF3  C2024 09 07.41992623 41 09.835+12 53 02.40   ~BUDH 21.73wXNEOCPF52
     P122JF3 1C2024 10 04.21620023 28 57.158+09 55 59.20   ~BTNH 22.06GVNEOCPG96
     P122JF3 1C2024 10 04.22139723 28 57.032+09 55 58.48   ~BTNH 21.55GVNEOCPG96
     P122JF3 1C2024 10 04.22656523 28 56.903+09 55 55.52   ~BTNH 20.72GVNEOCPG96
     P122JF3 1C2024 10 04.23173623 28 56.784+09 55 53.51   ~BTNH 21.07GVNEOCPG96
     P122JF3  C2024 10 08.27102023 27 22.245+09 26 35.56   ~BTNH 21.53wXNEOCPF51
     P122JF3  C2024 10 08.28267723 27 21.950+09 26 30.84   ~BTNH 21.54wXNEOCPF51
     P122JF3  C2024 10 08.30608623 27 21.438+09 26 20.22   ~BTNH 21.51wXNEOCPF51
     P122JF3  C2024 10 22.18536823 23 09.085+07 47 56.72   ~BTNH 21.35GVNEOCPV00
     P122JF3  C2024 10 22.19110123 23 09.006+07 47 54.56   ~BTNH 21.68GVNEOCPV00
     P122JF3  C2024 10 22.19682423 23 08.905+07 47 52.08   ~BTNH 22.02GVNEOCPV00
     P122JF3  C2024 10 22.20254523 23 08.833+07 47 49.78   ~BTNH 21.96GVNEOCPV00
     P122JF3  C2024 10 22.20379523 23 08.797+07 47 48.98   ~BTNH 22.01GVNEOCPV00
     P122JF3  C2024 10 22.20954923 23 08.743+07 47 46.93   ~BTNH 21.89GVNEOCPV00
     P122JF3  C2024 10 22.21527623 23 08.646+07 47 44.45   ~BTNH 21.67GVNEOCPV00
     P122JF3  C2024 10 22.22100423 23 08.567+07 47 42.32   ~BTNH 22.06GVNEOCPV00
     P122JF3* C2024 11 29.21575923 24 24.917+04 31 04.09   ~BTKH 21.82wXNEOCPF51
     P122JF3  C2024 11 29.24302423 24 25.394+04 30 58.78   ~BTKH 22.20wXNEOCPF51
     P122JF3  C2024 11 29.25663923 24 25.613+04 30 56.20   ~BTKH 22.57wXNEOCPF51

Station data:
(F51) Pan-STARRS 1, Haleakala  (N20.707234 W156.255910)  US/Hawaii.
   Observers J. Bulger, T. Lowe, A. Schultz, M. Willman. Measurers K.
   Chambers, S. Chastel, T. de Boer, L. Denneau, J. Fairlamb, H. Flewelling,
   M. Huber, C.-C. Lin, E. Magnier, Y. Ramanjooloo, R. Wainscoat, R. Weryk.
   1.8-m Ritchey-Chrétien + CCD.
(F52) Pan-STARRS 2, Haleakala  (N20.707382 W156.255910)  US/Hawaii.
   Observers J. Bulger, T. Dukes, T. Lowe, A. Schultz, M. Willman. Measurers
   K. Chambers, S. Chastel, T. de Boer, L. Denneau, J. Fairlamb, H.
   Flewelling, M. Huber, C.-C. Lin, E. Magnier, Y. Ramanjooloo, R. Wainscoat,
   R. Weryk. 1.8-m Ritchey-Chrétien + CCD.
(G96) Mt. Lemmon Survey  (N32.442729 W110.788720)  US/Arizona.  Observer E.
   J. Christensen. 1.5-m reflector + 10K CCD.
(V00) Kitt Peak-Bok  (N31.963125 W111.600190)  US/Arizona.  Observers T. A.
   Pruyne, B. M. Africano, E. J. Christensen, G. A. Farneth, D. C. Fuls, A.
   R. Gibbs, A. D. Grauer, H. Gröller, J. A. Johnson, R. A. Kowalski, S. M.
   Larson, G. J. Leonard, D. Rankin, R. L. Seaman, F. C. Shelly, K. W.
   Wierzchoś. 2.25-m reflector + 4x4K mosaic CCD.

Orbital elements:  P122JF3
   Perihelion 2024 Oct 4.61638 +/- 0.334 TT = 14:47:35 (JD 2460588.11638)
Epoch 2024 Nov 29.0 TT = JDT 2460643.5   Ju: 0.4721              AutoNEOCP
M   4.57337088 +/- 0.027            (J2000 ecliptic)
n   0.08257623 +/- 2.55e-6          Peri.  156.23592 +/- 0.037
a   5.22275116 +/- 0.000107         Node   202.06459 +/- 0.0009
e   0.1588249 +/- 1.7e-5            Incl.   24.13285 +/- 0.0009
P  11.93573                H 15.35  G  0.15   U  4.4
q 4.39324784 +/- 7.69e-5    Q 6.05225448 +/- 0.000193
From 21 observations 2024 Sept. 7-Nov. 29; mean residual 0".25
Residuals in arcseconds: 
240907 F52  .10+  .05-    241008 F51  .14+  .00     241022 V00  .30-  .44-    
240907 F52  .08-  .12-    241008 F51  .21-  .34+    241022 V00  .12+  .14-    
240907 F52  .02-  .15+    241008 F51  .29+  .12-    241022 V00  .10-  .28-    
241004 G96  .41-  1.0-    241022 V00  .04+  .23-    241022 V00  .05-  .07-    
241004 G96  .33-  .54+    241022 V00  .09+  .05-    241129 F51  .12-  .05+    
241004 G96  .30-  .18-    241022 V00  .19-  .19-    241129 F51  .14+  .03-    
241004 G96  .13-  .06+    241022 V00  .04-  .15-    241129 F51  .02-  .01+    

Ephemerides (geocentric):
Date (UTC) HH   RA             Dec           delta  r     elong  mag " sig PA
---- --------  ------------   ------------  ------ ------ -----  --- --------
2024 11 30 14  23 24 49.878   +04 26 48.46  4.0370 4.3972 105.0 22.3 .058  92
2024 11 30 15  23 24 50.661   +04 26 40.85  4.0376 4.3972 105.0 22.3 .058  92
2024 11 30 16  23 24 51.446   +04 26 33.25  4.0382 4.3972 105.0 22.3 .058  91
2024 11 30 17  23 24 52.233   +04 26 25.67  4.0388 4.3972 104.9 22.3 .059  91
2024 11 30 18  23 24 53.020   +04 26 18.10  4.0395 4.3972 104.9 22.3 .059  91
2024 11 30 19  23 24 53.809   +04 26 10.54  4.0401 4.3972 104.8 22.3 .059  91
2024 11 30 20  23 24 54.599   +04 26 02.99  4.0407 4.3972 104.8 22.3 .060  91
2024 11 30 21  23 24 55.391   +04 25 55.45  4.0413 4.3972 104.8 22.3 .060  91
2024 11 30 22  23 24 56.184   +04 25 47.93  4.0420 4.3972 104.7 22.3 .061  91
2024 11 30 23  23 24 56.979   +04 25 40.42  4.0426 4.3972 104.7 22.3 .061  91
2024 12 01 00  23 24 57.774   +04 25 32.91  4.0432 4.3972 104.6 22.3 .061  91
2024 12 01 01  23 24 58.572   +04 25 25.43  4.0439 4.3973 104.6 22.3 .062  91
2024 12 01 02  23 24 59.370   +04 25 17.95  4.0445 4.3973 104.6 22.3 .062  91
2024 12 01 03  23 25 00.170   +04 25 10.48  4.0451 4.3973 104.5 22.3 .062  91
2024 12 01 04  23 25 00.971   +04 25 03.03  4.0458 4.3973 104.5 22.3 .063  90
2024 12 01 05  23 25 01.774   +04 24 55.58  4.0464 4.3973 104.4 22.3 .063  90
2024 12 01 06  23 25 02.578   +04 24 48.15  4.0470 4.3973 104.4 22.3 .063  90
2024 12 01 07  23 25 03.383   +04 24 40.73  4.0476 4.3973 104.4 22.3 .064  90
2024 12 01 08  23 25 04.190   +04 24 33.33  4.0483 4.3973 104.3 22.3 .064  90
2024 12 01 09  23 25 04.998   +04 24 25.93  4.0489 4.3973 104.3 22.3 .065  90
2024 12 01 10  23 25 05.807   +04 24 18.55  4.0495 4.3973 104.2 22.3 .065  90
2024 12 01 11  23 25 06.618   +04 24 11.18  4.0502 4.3973 104.2 22.3 .065  90
2024 12 01 12  23 25 07.430   +04 24 03.81  4.0508 4.3973 104.2 22.3 .066  90
2024 12 01 13  23 25 08.243   +04 23 56.47  4.0514 4.3973 104.1 22.3 .066  90
2024 12 01 14  23 25 09.058   +04 23 49.13  4.0521 4.3973 104.1 22.3 .066  90
2024 12 01 15  23 25 09.874   +04 23 41.80  4.0527 4.3973 104.0 22.3 .067  90
2024 12 01 16  23 25 10.692   +04 23 34.49  4.0533 4.3973 104.0 22.4 .067  90
2024 12 01 17  23 25 11.511   +04 23 27.19  4.0540 4.3973 104.0 22.4 .068  90
2024 12 01 18  23 25 12.331   +04 23 19.90  4.0546 4.3974 103.9 22.4 .068  89
2024 12 01 19  23 25 13.152   +04 23 12.62  4.0552 4.3974 103.9 22.4 .068  89
2024 12 01 20  23 25 13.975   +04 23 05.35  4.0558 4.3974 103.9 22.4 .069  89
2024 12 01 21  23 25 14.799   +04 22 58.10  4.0565 4.3974 103.8 22.4 .069  89
2024 12 01 22  23 25 15.625   +04 22 50.86  4.0571 4.3974 103.8 22.4 .069  89
2024 12 01 23  23 25 16.452   +04 22 43.62  4.0577 4.3974 103.7 22.4 .070  89
2024 12 02 00  23 25 17.280   +04 22 36.40  4.0584 4.3974 103.7 22.4 .070  89
2024 12 02 01  23 25 18.110   +04 22 29.20  4.0590 4.3974 103.7 22.4 .071  89
2024 12 02 02  23 25 18.941   +04 22 22.00  4.0596 4.3974 103.6 22.4 .071  89
2024 12 02 03  23 25 19.773   +04 22 14.82  4.0603 4.3974 103.6 22.4 .071  89
2024 12 02 04  23 25 20.607   +04 22 07.64  4.0609 4.3974 103.5 22.4 .072  89
2024 12 02 05  23 25 21.442   +04 22 00.48  4.0615 4.3974 103.5 22.4 .072  89
2024 12 02 06  23 25 22.279   +04 21 53.33  4.0622 4.3974 103.5 22.4 .072  89
2024 12 02 07  23 25 23.116   +04 21 46.19  4.0628 4.3974 103.4 22.4 .073  89
2024 12 02 08  23 25 23.955   +04 21 39.07  4.0634 4.3974 103.4 22.4 .073  89
2024 12 02 09  23 25 24.796   +04 21 31.95  4.0641 4.3974 103.3 22.4 .074  88
2024 12 02 10  23 25 25.638   +04 21 24.85  4.0647 4.3974 103.3 22.4 .074  88
2024 12 02 11  23 25 26.481   +04 21 17.76  4.0653 4.3975 103.3 22.4 .074  88
2024 12 02 12  23 25 27.325   +04 21 10.68  4.0660 4.3975 103.2 22.4 .075  88
2024 12 02 13  23 25 28.171   +04 21 03.61  4.0666 4.3975 103.2 22.4 .075  88